Volver al catálogo

SL-3 R/B

ActivoPO
NORAD 5918·ROCKET BODY·🇷🇺 Russia

Lanzado Mar 30, 1972 desde Plesetsk Cosmodrome

Loading…

Próximos Pases (próximas 24 horas)

TLE

ActualizadoSource: Space-Track

Época: Sep 14, 2026, 02:26 UTC

1 05918U 72022B   26257.10204158  .00000064  00000-0  30933-4 0  9991
2 05918  81.2366 299.3958 0057903 197.4431 162.4751 14.06325073792116

Sigue SL-3 R/B en tiempo real con AllMySat

Download on the App Store